Regional Weather Roundup
Issued by NWS Newport/Morehead, NC

Current Version | Previous Version | Text Only | Print | Product List | Glossary Off
Versions: 1 2 3 4 5 6 7 8 9 10 11 12 13 14 15 16 17 18 19 20 21 22 23 24 25 26 27 28 29 30 31 32 33 34 35 36 37 38 39 40 41 42 43 44 45 46 47 48 49 50
000 ASUS42 KMHX 280613 RWRMHX WEATHER ROUNDUP FOR EASTERN NORTH CAROLINA NATIONAL WEATHER SERVICE NEWPORT/MOREHEAD CITY NC 200 AM EDT WED JUN 28 2017 NOTE: "FAIR" INDICATES FEW OR NO CLOUDS BELOW 12,000 FEET WITH NO SIGNIFICANT WEATHER AND/OR OBSTRUCTIONS TO VISIBILITY NCZ015>017-031-032-045>047-102-103-280700- NORTH COAST CITY SKY/WX TMP DP RH WIND PRES REMARKS EDENTON CLEAR 65 60 85 CALM 30.09S ELIZABETH CITY CLEAR 66 63 90 SW3 30.09R KITTY HAWK CLEAR 68 66 93 CALM 30.07R MANTEO MOCLDY 67 66 95 CALM 30.08R $$ NCZ045>047-081-094-103-104-280700- CENTRAL COAST CITY SKY/WX TMP DP RH WIND PRES REMARKS FRISCO NOT AVBL $$ NCZ095-097-098-100-101-280700- SOUTHERN COAST CITY SKY/WX TMP DP RH WIND PRES REMARKS BEAUFORT CLOUDY 72 62 71 N8 30.08R CEDAR ISLAND NOT AVBL JACKSONVILLE CLEAR 71 62 73 N6 30.08S PINEY ISLAND CLEAR N/A N/A N/A N10 30.07S WILMINGTON CLEAR 71 61 70 N8 30.08R $$ NCZ011>013-027>030-043-044-078>080-089-090>093-098-280700- COASTAL PLAIN CITY SKY/WX TMP DP RH WIND PRES REMARKS AHOSKIE N/A 62 57 82 CALM 30.09S CLINTON CLEAR 64 63 94 CALM 30.11R ELIZABETHTOWN NOT AVBL GOLDSBORO CLEAR 64 62 93 CALM 30.09R GREENVILLE CLEAR 61 61 100 CALM 30.11R HAVELOCK PTCLDY 73 57 57 N10 30.09S KENANSVILLE CLEAR 63 61 94 CALM 30.10S KINSTON CLEAR 61 58 91 CALM 30.10S NEW BERN CLEAR 66 61 84 CALM 30.10R RICHLANDS MOCLDY 66 62 87 CALM 30.10R ROCKY MOUNT CLEAR 61 61 100 CALM 30.10S WASHINGTON N/A N/A N/A N/A CALM 30.09S WHITEVILLE CLEAR 69 61 73 CALM 30.09R $$ AMZ130-135-150-152-154-156-158-170-250-252-270-ANZ085-086-088-633-658-670-280700- MARINE OBSERVATIONS STATION/POSITION TIME TEMP WIND PRES WAVE SWELL AIR SEA DIR/SP/G HT/PER HT/PER (UTC) (F) (DEG/KT/KT) (MB) (FT/S) (FT/S) CHESAPEAKE LIGHT NOT AVBL 64 E VA BEACH 0550 74 75 270/ 6/ 8 1018.2 1/ 7 2/ 7 DUCK 0548 290/ 4/ 5 1018.0 2 E DUCK NOT AVBL OREGON INLET 0536 30/ 3/ 4 1018.2 13E OREGON INLT 0548 75 N/A 2/ 3 2/ 8 HATTERAS CG 0548 10/ 16/ 20 1018.0 DIAMOND BUOY 0550 78 81 360/ 16/ 17 1017.5 2/ 6 2/ 6 CAPE LOOKOUT 0600 76 350/ 13/ 15 1018.0 BEAUFORT LAB 0548 10/ 9/ 12 1017.8 30 SE NEW RVR IN 0508 79 81 320/ 10/ 14 1017.9 30 SE NEW RVR IN 0543 81 N/A 2/ 8 27 SE WRIGHTSVLE 0508 80 81 310/ 10/ 14 1017.3 5 SE WRIGHTSVLE 0508 78 80 330/ 10/ 16 1017.9 225 S CAPE HAT 0550 79 80 220/ 6/ 8 1017.2 3/ 7 3/ 7 41 SE CHARLESTON 0550 80 81 30/ 6/ 8 1017.4 2/ 5 2/ 5 $$

USA.gov is the U.S. government's official web portal to all federal, state and local government web resources and services.